Stations météo

réclame
Mon MeteoGroup
San Sebastian/Igueldo, Espagne (8027): Température de l'air & dewpoint: 12.01.2019 13:00:00 - 18.01.2019 13:00:00 (CET)San Sebastian/Igueldo, Espagne (8027): Vitesse du vent: 12.01.2019 13:00:00 - 18.01.2019 13:00:00 (CET)San Sebastian/Igueldo, Espagne (8027): Direction du vent: 12.01.2019 13:00:00 - 18.01.2019 13:00:00 (CET)San Sebastian/Igueldo, Espagne (8027): reduced air pressure: 12.01.2019 13:00:00 - 18.01.2019 13:00:00 (CET)San Sebastian/Igueldo, Espagne (8027): visibility: 12.01.2019 13:00:00 - 18.01.2019 13:00:00 (CET)
Date & Time tt [°C] td [°C] ff [km/h] ff [knt] dd ppp [hPa] vv [km]
18.01.2019 13:00:00 - - - - - - -
18.01.2019 12:00:00 - - - - - - -
18.01.2019 11:00:00 - - - - - - -
18.01.2019 10:00:00 6,4 3,0 11 6 SSW 1020,3 30
18.01.2019 09:00:00 - - - - - - -
18.01.2019 08:00:00 - - - - - - -
18.01.2019 07:00:00 6,2 3,4 8 4 WNW 1020,8 9
18.01.2019 06:00:00 - - - - - - -
18.01.2019 05:00:00 - - - - - - -
18.01.2019 04:00:00 5,4 3,6 8 4 SSW 1022,0 25
18.01.2019 03:00:00 - - - - - - -
18.01.2019 02:00:00 - - - - - - -
18.01.2019 01:00:00 6,2 3,4 9 5 SW 1022,1 25
18.01.2019 00:00:00 - - - - - - -
17.01.2019 23:00:00 - - - - - - -
17.01.2019 22:00:00 6,6 5,2 11 6 W 1022,0 4,0
17.01.2019 21:00:00 - - - - - - -
17.01.2019 20:00:00 - - - - - - -
17.01.2019 19:00:00 7,0 4,3 21 11 W 1021,1 15
17.01.2019 18:00:00 - - - - - - -
17.01.2019 17:00:00 - - - - - - -
17.01.2019 16:00:00 8,0 6,3 18 10 W 1020,6 15
17.01.2019 15:00:00 - - - - - - -
17.01.2019 14:00:00 - - - - - - -
17.01.2019 13:00:00 8,8 4,8 15 8 W 1020,5 25
17.01.2019 12:00:00 - - - - - - -
17.01.2019 11:00:00 - - - - - - -
17.01.2019 10:00:00 7,4 4,7 13 7 W 1020,3 30
17.01.2019 09:00:00 - - - - - - -
17.01.2019 08:00:00 - - - - - - -
17.01.2019 07:00:00 8,1 6,6 28 15 W 1018,0 15
17.01.2019 06:00:00 - - - - - - -
17.01.2019 05:00:00 - - - - - - -
17.01.2019 04:00:00 8,3 6,8 16 9 W 1017,4 5
17.01.2019 03:00:00 - - - - - - -
17.01.2019 02:00:00 - - - - - - -
17.01.2019 01:00:00 9,4 5,0 13 7 SSW 1017,3 30
17.01.2019 00:00:00 - - - - - - -
16.01.2019 23:00:00 - - - - - - -
16.01.2019 22:00:00 10,0 5,4 9 5 WSW 1017,2 30
16.01.2019 21:00:00 - - - - - - -
16.01.2019 20:00:00 - - - - - - -
16.01.2019 19:00:00 9,8 4,0 8 4 SSW 1016,7 30
16.01.2019 18:00:00 - - - - - - -
16.01.2019 17:00:00 - - - - - - -
16.01.2019 16:00:00 10,4 6,5 8 4 W 1016,3 30
16.01.2019 15:00:00 - - - - - - -
16.01.2019 14:00:00 - - - - - - -
16.01.2019 13:00:00 10,0 5,2 18 10 WNW 1017,6 40
16.01.2019 12:00:00 - - - - - - -
16.01.2019 11:00:00 - - - - - - -
16.01.2019 10:00:00 9,4 2,3 8 4 SE 1016,5 40
16.01.2019 09:00:00 - - - - - - -
16.01.2019 08:00:00 - - - - - - -
16.01.2019 07:00:00 9,6 2,0 26 14 SSE 1015,9 50
16.01.2019 06:00:00 - - - - - - -
16.01.2019 05:00:00 - - - - - - -
16.01.2019 04:00:00 9,0 1,9 24 13 SSE 1016,8 50
16.01.2019 03:00:00 - - - - - - -
16.01.2019 02:00:00 - - - - - - -
16.01.2019 01:00:00 6,8 4,5 0 0 N 1018,7 50
16.01.2019 00:00:00 - - - - - - -
15.01.2019 23:00:00 - - - - - - -
15.01.2019 22:00:00 6,4 5,5 8 4 SE 1019,7 50
15.01.2019 21:00:00 - - - - - - -
15.01.2019 20:00:00 - - - - - - -
15.01.2019 19:00:00 7,6 5,9 9 5 ENE 1020,2 50
15.01.2019 18:00:00 - - - - - - -
15.01.2019 17:00:00 - - - - - - -
15.01.2019 16:00:00 8,4 4,8 8 4 NNW 1020,8 50
15.01.2019 15:00:00 - - - - - - -
15.01.2019 14:00:00 - - - - - - -
15.01.2019 13:00:00 8,3 5,2 2 1 ENE 1023,2 30
15.01.2019 12:00:00 - - - - - - -
15.01.2019 11:00:00 - - - - - - -
15.01.2019 10:00:00 7,1 5,1 8 4 ENE 1024,6 30
15.01.2019 09:00:00 - - - - - - -
15.01.2019 08:00:00 - - - - - - -
15.01.2019 07:00:00 7,6 7,2 15 8 E 1024,6 30
15.01.2019 06:00:00 - - - - - - -
15.01.2019 05:00:00 - - - - - - -
15.01.2019 04:00:00 7,7 7,6 8 4 ESE 1025,7 30
15.01.2019 03:00:00 - - - - - - -
15.01.2019 02:00:00 - - - - - - -
15.01.2019 01:00:00 8,4 8,4 8 4 ENE 1026,2 0,8
15.01.2019 00:00:00 - - - - - - -
14.01.2019 23:00:00 - - - - - - -
14.01.2019 22:00:00 9,2 9,2 9 5 N 1026,5 0,5
14.01.2019 21:00:00 - - - - - - -
14.01.2019 20:00:00 - - - - - - -
14.01.2019 19:00:00 9,2 9,2 13 7 W 1026,5 0,5
14.01.2019 18:00:00 - - - - - - -
14.01.2019 17:00:00 - - - - - - -
14.01.2019 16:00:00 9,1 9,1 21 11 WNW 1026,5 0,2
14.01.2019 15:00:00 - - - - - - -
14.01.2019 14:00:00 - - - - - - -
14.01.2019 13:00:00 8,9 8,9 16 9 W 1027,4 20
14.01.2019 12:00:00 - - - - - - -
14.01.2019 11:00:00 - - - - - - -
14.01.2019 10:00:00 8,5 8,5 21 11 W 1027,3 0,1
14.01.2019 09:00:00 - - - - - - -
14.01.2019 08:00:00 - - - - - - -
14.01.2019 07:00:00 8,4 8,0 21 11 W 1026,8 5
14.01.2019 06:00:00 - - - - - - -
14.01.2019 05:00:00 - - - - - - -
14.01.2019 04:00:00 8,6 7,4 18 10 W 1027,8 20
14.01.2019 03:00:00 - - - - - - -
14.01.2019 02:00:00 - - - - - - -
14.01.2019 01:00:00 8,6 7,5 18 10 W 1028,8 8
14.01.2019 00:00:00 - - - - - - -
13.01.2019 23:00:00 - - - - - - -
13.01.2019 22:00:00 9,0 6,8 18 10 W 1029,4 20
13.01.2019 21:00:00 - - - - - - -
13.01.2019 20:00:00 - - - - - - -
13.01.2019 19:00:00 8,6 6,9 16 9 WSW 1029,4 20
13.01.2019 18:00:00 - - - - - - -
13.01.2019 17:00:00 - - - - - - -
13.01.2019 16:00:00 8,2 7,3 15 8 W 1029,9 8
13.01.2019 15:00:00 - - - - - - -
13.01.2019 14:00:00 - - - - - - -
13.01.2019 13:00:00 8,1 8,0 16 9 W 1031,4 4,0
13.01.2019 12:00:00 - - - - - - -
13.01.2019 11:00:00 - - - - - - -
13.01.2019 10:00:00 7,8 6,9 16 9 W 1032,0 8
13.01.2019 09:00:00 - - - - - - -
13.01.2019 08:00:00 - - - - - - -
13.01.2019 07:00:00 8,4 4,8 16 9 W 1031,6 30
13.01.2019 06:00:00 - - - - - - -
13.01.2019 05:00:00 - - - - - - -
13.01.2019 04:00:00 8,4 4,8 15 8 W 1032,4 30
13.01.2019 03:00:00 - - - - - - -
13.01.2019 02:00:00 - - - - - - -
13.01.2019 01:00:00 9,0 3,6 15 8 NW 1033,1 30
13.01.2019 00:00:00 - - - - - - -
12.01.2019 23:00:00 - - - - - - -
12.01.2019 22:00:00 8,8 4,2 18 10 NNW 1033,2 25
12.01.2019 21:00:00 - - - - - - -
12.01.2019 20:00:00 - - - - - - -
12.01.2019 19:00:00 7,6 6,7 9 5 WNW 1033,2 25
12.01.2019 18:00:00 - - - - - - -
12.01.2019 17:00:00 - - - - - - -
12.01.2019 16:00:00 7,8 6,3 9 5 NW 1032,9 8
12.01.2019 15:00:00 - - - - - - -
12.01.2019 14:00:00 - - - - - - -
12.01.2019 13:00:00 7,2 5,3 4 2 SE 1033,1 18

tt = Température de l'air
td = dewpoint
ff = Vitesse du vent
dd = Direction du vent
ppp = reduced air pressure
vv = visibility

stations d'obs. à proximité